timestamp,surface_pressure_avg,surface_temp_avg,battery_voltage,lat,long
2018-04-10 00:00:00+00:00,210.0298,1.69,12.41,47.84626,-54.09684
2018-04-10 00:10:00+00:00,204.6898,1.67,12.41,47.84626,-54.09684
2018-04-10 00:20:00+00:00,199.8115,1.69,12.41,47.84626,-54.09684
2018-04-10 00:30:00+00:00,206.1881,1.68,12.41,47.84626,-54.09684
2018-04-10 00:40:00+00:00,204.8914,1.67,12.41,47.84626,-54.09684
2018-04-10 00:50:00+00:00,196.3348,1.67,12.41,47.84626,-54.09684
2018-04-10 01:00:00+00:00,200.9964,1.66,12.41,47.84626,-54.09684
2018-04-10 01:10:00+00:00,208.7064,1.66,12.41,47.84626,-54.09684
2018-04-10 01:20:00+00:00,206.7448,1.63,12.41,47.84626,-54.09684
2018-04-10 01:30:00+00:00,207.1431,1.6,12.41,47.84626,-54.09684
2018-04-10 01:40:00+00:00,217.1364,1.63,12.41,47.84626,-54.09684
2018-04-10 01:50:00+00:00,219.8615,1.6,12.41,47.84626,-54.09684
2018-04-10 02:00:00+00:00,218.318,1.6,12.41,47.84626,-54.09684
2018-04-10 02:10:00+00:00,223.7081,1.6,12.41,47.84626,-54.09684
2018-04-10 02:20:00+00:00,232.5164,1.6,12.41,47.84626,-54.09684
2018-04-10 02:30:00+00:00,238.5914,1.6,12.41,47.84626,-54.09684
2018-04-10 02:40:00+00:00,243.6614,1.58,12.41,47.84626,-54.09684
2018-04-10 02:50:00+00:00,250.3247,1.59,12.41,47.84626,-54.09684
2018-04-10 03:00:00+00:00,255.6747,1.6,12.41,47.84626,-54.09684
2018-04-10 03:10:00+00:00,257.4414,1.6,12.41,47.84626,-54.09684
2018-04-10 03:20:00+00:00,256.1047,1.6,12.41,47.84626,-54.09684
2018-04-10 03:30:00+00:00,263.2498,1.6,12.41,47.84626,-54.09684
2018-04-10 03:40:00+00:00,267.213,1.58,12.41,47.84626,-54.09684
2018-04-10 03:50:00+00:00,263.4898,1.5,12.41,47.84626,-54.09684
2018-04-10 04:00:00+00:00,260.9981,1.5,12.41,47.84626,-54.09684
2018-04-10 04:10:00+00:00,270.3164,1.54,12.41,47.84626,-54.09684
2018-04-10 04:20:00+00:00,272.3764,1.56,12.41,47.84626,-54.09684
2018-04-10 04:30:00+00:00,268.7414,1.59,12.41,47.84626,-54.09684
2018-04-10 04:40:00+00:00,274.4147,1.59,12.41,47.84626,-54.09684
2018-04-10 04:50:00+00:00,281.9514,1.59,12.41,47.84626,-54.09684
2018-04-10 05:00:00+00:00,279.303,1.52,12.41,47.84626,-54.09684
2018-04-10 05:10:00+00:00,279.7747,1.52,12.41,47.84626,-54.09684
2018-04-10 05:20:00+00:00,289.0997,1.57,12.41,47.84626,-54.09684
2018-04-10 05:30:00+00:00,292.5164,1.57,12.41,47.84626,-54.09684
2018-04-10 05:40:00+00:00,289.6981,1.59,12.41,47.84626,-54.09684
2018-04-10 05:50:00+00:00,292.7147,1.6,12.41,47.84626,-54.09684
2018-04-10 06:00:00+00:00,300.1664,1.6,12.33,47.84626,-54.09684
2018-04-10 06:10:00+00:00,302.7864,1.6,12.41,47.84626,-54.09684
2018-04-10 06:20:00+00:00,301.9896,1.6,12.41,47.84626,-54.09684
2018-04-10 06:30:00+00:00,310.0347,1.6,12.41,47.84626,-54.09684
2018-04-10 06:40:00+00:00,317.3464,1.6,12.41,47.84626,-54.09684
2018-04-10 06:50:00+00:00,313.0497,1.6,12.41,47.84626,-54.09684
2018-04-10 07:00:00+00:00,312.4547,1.6,12.33,47.84626,-54.09684
2018-04-10 07:10:00+00:00,318.6312,1.6,12.33,47.84626,-54.09684
2018-04-10 07:20:00+00:00,319.1846,1.59,12.41,47.84626,-54.09684
2018-04-10 07:30:00+00:00,319.4913,1.55,12.41,47.84626,-54.09684
2018-04-10 07:40:00+00:00,330.2347,1.54,12.41,47.84626,-54.09684
2018-04-10 07:50:00+00:00,333.8646,1.5,12.41,47.84626,-54.09684
2018-04-10 08:00:00+00:00,329.8446,1.46,12.33,47.84626,-54.09684
2018-04-10 08:10:00+00:00,330.7097,1.5,12.33,47.84626,-54.09684
2018-04-10 08:20:00+00:00,339.6263,1.5,12.41,47.84626,-54.09684
2018-04-10 08:30:00+00:00,340.418,1.5,12.41,47.84626,-54.09684
2018-04-10 08:40:00+00:00,333.7296,1.45,12.41,47.84626,-54.09684
2018-04-10 08:50:00+00:00,331.9913,1.5,12.41,47.84626,-54.09684
2018-04-10 09:00:00+00:00,332.403,1.52,12.33,47.84626,-54.09684
2018-04-10 09:10:00+00:00,323.0797,1.5,12.33,47.84626,-54.09684
2018-04-10 09:20:00+00:00,314.178,1.5,12.41,47.84626,-54.09684
2018-04-10 09:30:00+00:00,313.568,1.5,12.41,47.84626,-54.09684
2018-04-10 09:40:00+00:00,309.1746,1.5,12.41,47.84626,-54.09684
2018-04-10 09:50:00+00:00,297.2047,1.5,12.41,47.84626,-54.09684
2018-04-10 10:00:00+00:00,291.668,1.5,12.33,47.84626,-54.09684
2018-04-10 10:10:00+00:00,288.483,1.5,12.33,47.84626,-54.09684
2018-04-10 10:20:00+00:00,277.4698,1.5,12.41,47.84626,-54.09684
2018-04-10 10:30:00+00:00,269.1631,1.5,12.41,47.84626,-54.09684
2018-04-10 10:40:00+00:00,269.3398,1.5,12.41,47.84626,-54.09684
2018-04-10 10:50:00+00:00,266.9064,1.5,12.41,47.84626,-54.09684
2018-04-10 11:00:00+00:00,262.0747,1.5,12.33,47.84626,-54.09684
2018-04-10 11:10:00+00:00,260.7447,1.52,12.33,47.84626,-54.09684
2018-04-10 11:20:00+00:00,260.7347,1.53,12.41,47.84626,-54.09684
2018-04-10 11:30:00+00:00,257.3631,1.5,12.41,47.84626,-54.09684
2018-04-10 11:40:00+00:00,256.8047,1.5,12.41,47.84626,-54.09684
2018-04-10 11:50:00+00:00,256.7764,1.52,12.65,47.84626,-54.09684
2018-04-10 12:00:00+00:00,254.8448,1.5,12.89,47.84626,-54.09684
2018-04-10 12:10:00+00:00,254.0815,1.58,13.05,47.84626,-54.09684
2018-04-10 12:20:00+00:00,255.3847,1.59,12.73,47.84626,-54.09684
2018-04-10 12:30:00+00:00,255.7914,1.6,12.65,47.84626,-54.09684
2018-04-10 12:40:00+00:00,256.9998,1.6,13.05,47.84626,-54.09684
2018-04-10 12:50:00+00:00,259.0497,1.6,12.73,47.84626,-54.09684
2018-04-10 13:00:00+00:00,260.0914,1.6,12.73,47.84626,-54.09684
2018-04-10 13:10:00+00:00,259.7531,1.6,12.81,47.84626,-54.09684
2018-04-10 13:20:00+00:00,259.5315,1.6,13.05,47.84626,-54.09684
2018-04-10 13:30:00+00:00,260.0231,1.6,12.73,47.84626,-54.09684
2018-04-10 13:40:00+00:00,262.2614,1.6,12.73,47.84626,-54.09684
2018-04-10 13:50:00+00:00,262.1614,1.6,12.97,47.84626,-54.09684
2018-04-10 14:00:00+00:00,260.0714,1.6,12.89,47.84626,-54.09684
2018-04-10 14:10:00+00:00,259.7364,1.6,12.73,47.84626,-54.09684
2018-04-10 14:20:00+00:00,259.8347,1.6,12.73,47.84626,-54.09684
2018-04-10 14:30:00+00:00,260.0131,1.6,12.65,47.84626,-54.09684
2018-04-10 14:40:00+00:00,263.4331,1.61,12.65,47.84626,-54.09684
2018-04-10 14:50:00+00:00,267.4331,1.61,12.65,47.84626,-54.09684
2018-04-10 15:00:00+00:00,269.5464,1.6,12.81,47.84626,-54.09684
2018-04-10 15:10:00+00:00,270.4914,1.64,12.81,47.84626,-54.09684
2018-04-10 15:20:00+00:00,274.0547,1.68,13.05,47.84626,-54.09684
2018-04-10 15:30:00+00:00,276.0514,1.7,12.97,47.84626,-54.09684
2018-04-10 15:40:00+00:00,275.233,1.69,12.97,47.84626,-54.09684
2018-04-10 15:50:00+00:00,273.3148,1.7,12.97,47.84626,-54.09684
2018-04-10 16:00:00+00:00,274.858,1.7,12.89,47.84626,-54.09684
2018-04-10 16:10:00+00:00,275.9348,1.7,12.89,47.84626,-54.09684
2018-04-10 16:20:00+00:00,276.9797,1.71,12.97,47.84626,-54.09684
2018-04-10 16:30:00+00:00,279.868,1.76,12.89,47.84626,-54.09684
2018-04-10 16:40:00+00:00,281.5748,1.7,12.89,47.84626,-54.09684
2018-04-10 16:50:00+00:00,281.6314,1.74,12.89,47.84626,-54.09684
2018-04-10 17:00:00+00:00,285.8964,1.79,12.89,47.84626,-54.09684
2018-04-10 17:10:00+00:00,292.6198,1.8,12.81,47.84626,-54.09684
2018-04-10 17:20:00+00:00,294.2679,1.8,12.89,47.84626,-54.09684
2018-04-10 17:30:00+00:00,291.7047,1.8,12.89,47.84626,-54.09684
2018-04-10 17:40:00+00:00,292.6647,1.8,12.89,47.84626,-54.09684
2018-04-10 17:50:00+00:00,299.028,1.79,12.89,47.84626,-54.09684
2018-04-10 18:00:00+00:00,300.533,1.78,12.81,47.84626,-54.09684
2018-04-10 18:10:00+00:00,300.688,1.78,12.81,47.84626,-54.09684
2018-04-10 18:20:00+00:00,305.5098,1.8,12.97,47.84626,-54.09684
2018-04-10 18:30:00+00:00,311.163,1.8,12.97,47.84626,-54.09684
2018-04-10 18:40:00+00:00,310.6447,1.8,12.97,47.84626,-54.09684
2018-04-10 18:50:00+00:00,312.2097,1.8,12.97,47.84626,-54.09684
2018-04-10 19:00:00+00:00,320.8047,1.7,12.89,47.84626,-54.09684
2018-04-10 19:10:00+00:00,323.9113,1.7,12.89,47.84626,-54.09684
2018-04-10 19:20:00+00:00,322.4963,1.7,12.89,47.84626,-54.09684
2018-04-10 19:30:00+00:00,324.673,1.7,12.89,47.84626,-54.09684
2018-04-10 19:40:00+00:00,330.1246,1.7,12.89,47.84626,-54.09684
2018-04-10 19:50:00+00:00,329.3796,1.7,12.89,47.84626,-54.09684
2018-04-10 20:00:00+00:00,326.4764,1.7,12.81,47.84626,-54.09684
2018-04-10 20:10:00+00:00,330.058,1.7,12.81,47.84626,-54.09684
2018-04-10 20:20:00+00:00,334.0347,1.7,12.81,47.84626,-54.09684
2018-04-10 20:30:00+00:00,329.5797,1.7,12.81,47.84626,-54.09684
2018-04-10 20:40:00+00:00,326.5446,1.7,12.81,47.84626,-54.09684
2018-04-10 20:50:00+00:00,330.8497,1.7,12.81,47.84626,-54.09684
2018-04-10 21:00:00+00:00,331.8646,1.7,12.73,47.84626,-54.09684
2018-04-10 21:10:00+00:00,327.4913,1.74,12.73,47.84626,-54.09684
2018-04-10 21:20:00+00:00,326.673,1.77,12.81,47.84626,-54.09684
2018-04-10 21:30:00+00:00,322.3663,1.77,12.73,47.84626,-54.09684
2018-04-10 21:40:00+00:00,313.2614,1.79,12.73,47.84626,-54.09684
2018-04-10 21:50:00+00:00,309.053,1.8,12.73,47.84626,-54.09684
2018-04-10 22:00:00+00:00,307.9547,1.8,12.65,47.84626,-54.09684
2018-04-10 22:10:00+00:00,300.9114,1.8,12.65,47.84626,-54.09684
2018-04-10 22:20:00+00:00,292.1397,1.8,12.73,47.84626,-54.09684
2018-04-10 22:30:00+00:00,291.1497,1.8,12.73,47.84626,-54.09684
2018-04-10 22:40:00+00:00,288.9865,1.8,12.73,47.84626,-54.09684
2018-04-10 22:50:00+00:00,282.0514,1.75,12.73,47.84626,-54.09684
2018-04-10 23:00:00+00:00,279.8014,1.74,12.65,47.84626,-54.09684
2018-04-10 23:10:00+00:00,281.0681,1.7,12.65,47.84626,-54.09684
2018-04-10 23:20:00+00:00,275.5031,1.7,12.65,47.84626,-54.09684
2018-04-10 23:30:00+00:00,271.8098,1.7,12.65,47.84626,-54.09684
2018-04-10 23:40:00+00:00,269.0714,1.7,12.65,47.84626,-54.09684
2018-04-10 23:50:00+00:00,262.7297,1.7,12.65,47.84626,-54.09684
